Culdrose, United Kingdom

6:45 AM BST on May 28, 2017 (GMT +0100)
Culdrose Navy

Weather History for EGDR - March, 2013

Change the Weather History Date:

Saturday, March 23, 2013

  Actual Average Record
Temperature  
Mean Temperature 43 °F -  
Max Temperature 46 °F 50 °F 57 °F (2012)
Min Temperature 39 °F 42 °F 33 °F (2014)
Degree Days  
Heating Degree Days 22    
Moisture  
Dew Point 43 °F    
Average Humidity 96    
Maximum Humidity 100    
Minimum Humidity 89    
Precipitation  
Precipitation 0.00 in - - ()
Sea Level Pressure  
Sea Level Pressure 29.67 in    
Wind  
Wind Speed 14 mph ()    
Max Wind Speed 25 mph    
Max Gust Speed 38 mph    
Visibility 1.2 miles    
Events Fog    
Averages and records for this station are not official NWS values.
T = Trace of Precipitation, MM = Missing Value Source: Averaged Metar Reports

Daily Weather History Graph

Daily Weather History Graph

Search for Another Location

Airport or City:

Trip Planner

Search our weather history database for the weather conditions in past years. The results will help you decide how hot, cold, wet, or windy it might be!

Date:

Astronomy

Mar. 23, 2013 Rise Set
Actual Time 6:17 AM GMT 6:38 PM GMT
Civil Twilight 5:44 AM GMT 7:11 PM GMT
Nautical Twilight 5:06 AM GMT 7:49 PM GMT
Astronomical Twilight 4:26 AM GMT 8:29 PM GMT
Moon 2:32 PM GMT (3/23) 4:06 AM GMT (3/23)
Length of Visible Light 13h 26m
Length of Day
12h 21m
Waxing Gibbous, 83% of the Moon is Illuminated
Mar 23
Waxing Gibbous
Mar 27
Full
Apr 3
Last Quarter
Apr 10
New
Apr 18
First Quarter

Hourly Weather History & Observations

Time (GMT) Temp. Windchill Dew Point Humidity Pressure Visibility Wind Dir Wind Speed Gust Speed Precip Events Conditions
12:50 AM 46.4 °F 42.4 °F 46.4 °F 100% 29.59 in 0.4 mi East 8.1 mph - N/A Fog Fog
1:50 AM 44.6 °F 39.2 °F 44.6 °F 100% 29.59 in 0.4 mi East 10.4 mph - N/A Fog Fog
2:50 AM 45 °F - 45 °F 100% 29.62 in 0 mi East 10.4 mph - - Fog Partial Fog
2:50 AM 44.6 °F 39.2 °F 44.6 °F 100% 29.59 in 0.4 mi East 10.4 mph - N/A Fog Fog
3:50 AM 44.6 °F 38.8 °F 44.6 °F 100% 29.59 in 0.2 mi East 11.5 mph - N/A Fog Fog
4:50 AM 44.6 °F 38.8 °F 44.6 °F 100% 29.59 in 0.9 mi East 11.5 mph - N/A   Overcast
5:50 AM 45 °F - 45 °F 98% 29.63 in 2 mi East 12.7 mph - -   Mist
5:50 AM 44.6 °F 38.4 °F 44.6 °F 100% 29.62 in 1.6 mi East 12.7 mph - N/A   Overcast
6:50 AM 44.6 °F 38.8 °F 44.6 °F 100% 29.62 in 2.5 mi East 11.5 mph - N/A   Overcast
7:50 AM 44.6 °F 38.4 °F 44.6 °F 100% 29.65 in 1.9 mi East 12.7 mph - N/A   Overcast
8:50 AM 46 °F - 45 °F 93% 29.66 in 2 mi East 15.0 mph - -   Mist
8:50 AM 46.4 °F 40.1 °F 44.6 °F 93% 29.65 in 2.5 mi East 15.0 mph - N/A   Mostly Cloudy
9:50 AM 46.4 °F 39.8 °F 44.6 °F 93% 29.65 in 1.4 mi East 16.1 mph - N/A   Overcast
10:50 AM 46.4 °F 39.5 °F 44.6 °F 93% 29.65 in 1.5 mi East 17.3 mph - N/A   Overcast
11:50 AM 46 °F - 44 °F 90% 29.69 in 1 mi ESE 19.6 mph - -   Haze
11:50 AM 46.4 °F 39.0 °F 44.6 °F 93% 29.68 in 1.2 mi ESE 19.6 mph - N/A   Haze
12:50 PM 44.6 °F 36.4 °F 44.6 °F 100% 29.68 in 1.1 mi East 20.7 mph 32.2 mph N/A   Overcast
1:50 PM 44.6 °F 36.6 °F 44.6 °F 100% 29.68 in 1.1 mi East 19.6 mph 31.1 mph N/A   Overcast
2:50 PM 44 °F - 43 °F 95% 29.70 in 1 mi East 20.7 mph - -   Mist
2:50 PM 44.6 °F 36.4 °F 42.8 °F 93% 29.68 in 1.2 mi East 20.7 mph 34.5 mph N/A   Overcast
3:50 PM 42.8 °F 34.0 °F 42.8 °F 100% 29.68 in 1.2 mi East 20.7 mph 34.5 mph N/A   Overcast
4:50 PM 42.8 °F 33.5 °F 41.0 °F 93% 29.68 in 1.0 mi East 23.0 mph 35.7 mph N/A   Overcast
5:50 PM 42 °F - 41 °F 95% 29.71 in 1 mi East 21.9 mph - -   Mist
5:50 PM 42.8 °F 33.8 °F 41.0 °F 93% 29.68 in 0.9 mi East 21.9 mph 38.0 mph N/A   Overcast
6:50 PM 41.0 °F 30.7 °F 41.0 °F 100% 29.71 in 1.0 mi East 25.3 mph 38.0 mph N/A   Overcast
7:50 PM 41.0 °F 31.1 °F 39.2 °F 93% 29.71 in 1.0 mi East 23.0 mph 36.8 mph N/A   Overcast
8:50 PM 41 °F - 39 °F 91% 29.75 in 1 mi East 21.9 mph - -   Mist
8:50 PM 41.0 °F 31.4 °F 39.2 °F 93% 29.74 in 1.1 mi East 21.9 mph 34.5 mph N/A   Overcast
9:50 PM 41.0 °F 30.9 °F 39.2 °F 93% 29.74 in 1.0 mi East 24.2 mph 36.8 mph N/A   Overcast
10:50 PM 41.0 °F 31.4 °F 39.2 °F 93% 29.74 in 1.2 mi East 21.9 mph 36.8 mph N/A   Haze
11:50 PM 40 °F - 38 °F 89% 29.75 in 2 mi East 21.9 mph - -   Haze
11:50 PM 39.2 °F 29.0 °F 37.4 °F 93% 29.74 in 1.9 mi East 21.9 mph 35.7 mph N/A   Haze